Regional Weather Roundup
Issued by NWS

Home | Current Version | Previous Version | Graphics & Text | Print | Product List | Glossary On
Versions: 1 2 3 4 5 6 7 8 9 10 11 12 13 14 15 16 17 18 19 20 21 22 23 24 25 26 27 28 29 30 31 32 33 34 35 36 37 38 39 40 41 42 43 44 45 46 47 48 49 50
000
ASUS43 KMKX 261621
RWRWI

WISCONSIN REGIONAL WEATHER ROUNDUP
NATIONAL WEATHER SERVICE MILWAUKEE/SULLIVAN WI
1100 AM CDT FRI MAY 26 2017

NOTE: "FAIR" INDICATES FEW OR NO CLOUDS BELOW 12,000 FEET WITH NO
SIGNIFICANT WEATHER AND/OR OBSTRUCTIONS TO VISIBILITY.

WIZ001-002-006>008-014>016-023>028-261700-
NORTHWEST WISCONSIN

CITY           SKY/WX    TMP DP  RH WIND       PRES   REMARKS
SUPERIOR ARPT  NOT AVBL
ASHLAND        CLOUDY    56  51  84 NE3       29.76S
HAYWARD        CLOUDY    65  53  65 SE5       29.75F
SIREN          CLOUDY    66  54  65 S12       29.75R
CUMBERLAND     CLOUDY    63  52  67 S8        29.76S
RICE LAKE      CLOUDY    69  53  55 SE9G17    29.77F
CHETEK         CLOUDY    68  56  64 MISG      29.77S
LADYSMITH      CLOUDY    67  56  66 S10       29.80S
EAU CLAIRE     CLOUDY    70  54  56 S12       29.76F
MENOMONIE      CLOUDY    68  54  60 SE8       29.77S
NEW RICHMOND   MOSUNNY   66  55  67 S9        29.75F
OSCEOLA        CLOUDY    67  55  65 S8        29.77S
$$

WIZ003>005-009-010-017-018-261700-
NORTH CENTRAL WISCONSIN

CITY           SKY/WX    TMP DP  RH WIND       PRES   REMARKS
MANITOWISH WTR CLOUDY    64  55  75 S10       29.80S
ARBOR VITAE    PTSUNNY   64  55  70 S7        29.81S
WOODRUFF       PTSUNNY   64  55  70 S7        29.81S
RHINELANDER    CLOUDY    65  55  70 S5        29.83R
EAGLE RIVER    CLOUDY    64  52  65 SE6       29.82S
LAND O LAKES   CLOUDY    68  53  58 E6        29.82F
PHILLIPS       CLOUDY    66  54  65 SW7       29.79S
TOMAHAWK       CLOUDY    64  54  70 CALM      29.82S
MEDFORD        CLOUDY    65  56  73 S8G17     29.81S
MERRILL        MOSUNNY   67  55  65 S7        29.82S
$$

WIZ029-030-035-036-043>047-261700-
CENTRAL WISCONSIN

CITY           SKY/WX    TMP DP  RH WIND       PRES   REMARKS
WAUSAU         CLOUDY    67  55  65 S8        29.80S
MOSINEE        PTSUNNY   64  57  77 SE9       29.83S
MARSHFIELD     PTSUNNY   68  57  68 S8        29.80S
STEVENS POINT  MOSUNNY   64  56  77 SE8       29.83S
WAUPACA        MOSUNNY   68  57  66 SE7       29.83F
WAUTOMA        CLOUDY    66  55  67 SE9       29.82F
WISC RAPIDS    MOSUNNY   69  58  67 S8        29.82S
CAMP DOUGLAS   PTSUNNY   72  55  56 SE9G17    29.79F
$$

WIZ011>013-019>022-031-037>040-048>050-261700-
NORTHEAST WISCONSIN

CITY           SKY/WX    TMP DP  RH WIND       PRES   REMARKS
ANTIGO         CLOUDY    65  57  74 S5        29.84R
SHAWANO        SUNNY     69  56  65 E6        29.84S
OCONTO         PTSUNNY   63  53  68 S7        29.84S
STURGEON BAY   PTSUNNY   63  54  72 VRB6      29.85F HAZE
GREEN BAY      SUNNY     66  57  72 E5        29.84S
MANITOWOC      MOSUNNY   58  53  84 E8        29.87S
APPLETON       NOT AVBL
CLINTONVILLE   SUNNY     66  55  68 SE7       29.84S
OSHKOSH        CLOUDY    66  55  67 E8        29.83S
$$

WIZ032>034-041-042-053>061-261700-
SOUTHWEST WISCONSIN

CITY           SKY/WX    TMP DP  RH WIND       PRES   REMARKS
LA CROSSE      CLOUDY    71  58  63 SW9       29.78R
SPARTA         MOSUNNY   72  55  55 S10       29.79S
VIROQUA        CLOUDY    66  56  70 MISG      29.80R
BOSCOBEL       CLOUDY    68  56  65 SE5       29.79R
PRAIRIE DU CHI LGT RAIN  64  54  69 SE6       29.77S
PLATTEVILLE    CLOUDY    64  60  88 E7        29.80S
$$

WIZ056-057-062-063-064-067-068-261700-
SOUTH CENTRAL WISCONSIN

CITY           SKY/WX    TMP DP  RH WIND       PRES   REMARKS
REEDSBURG      CLOUDY    69  57  66 S6        29.80S
BARABOO/DELLS  CLOUDY    68  56  65 SE9       29.80F
LONE ROCK      CLOUDY    68  55  63 S9        29.79S
MINERAL POINT  LGT RAIN  64  59  82 SE5       29.81R
MADISON        CLOUDY    67  57  70 SE10      29.81S
MIDDLETON      PTSUNNY   68  57  68 E10       29.81F
WATERTOWN      MOSUNNY   67  56  69 E8        29.83S
MONROE         CLOUDY    64  54  68 SE10      29.80F
JANESVILLE     MOSUNNY   70  55  60 SE10      29.81S
$$

WIZ051-052-058>065-066-070>072-261700-
SOUTHEAST WISCONSIN

CITY           SKY/WX    TMP DP  RH WIND       PRES   REMARKS
MILWAUKEE      CLOUDY    58  53  84 SE6       29.87S
WAUKESHA       SUNNY     63  54  72 E9        29.86F
MILWAUKEE/TIMM SUNNY     63  50  63 E5        29.87F
RACINE         PTSUNNY   55  50  83 SE6       29.89F
KENOSHA        MOSUNNY   62  53  72 E10       29.87S
FOND DU LAC    CLOUDY    67  52  58 SE5       29.84S
SHEBOYGAN      CLOUDY    60  55  83 SE6       29.87R
WEST BEND      CLOUDY    63  55  77 SE8       29.86S
JUNEAU         MOSUNNY   65  56  72 SE7       29.85R
$$

LSZ147-162-261700-
LAKE SUPERIOR

STATION/POSITION TIME  TEMP    WIND        PRES    WAVE
                       AIR SEA DIR/SP/G            HT/PER
                 (UTC) (F)     (DEG/KT/KT) (MB)    (FT/S)
W MID LAKE BUOY  1550   43 37  150/  2/  4 1009.2R   1
DEVILS ISLAND    1600   46      90/  9/  9 1008.1R
PORT WING        1540   42     350/  3/  5 1007.8R
SAXON HARBOR     1540   50     310/  2/  3 1007.8S
$$

LMZ867-665-643>646-261700-
LAKE MICHIGAN

STATION/POSITION TIME  TEMP    WIND        PRES    WAVE
                       AIR SEA DIR/SP/G            HT/PER
                 (UTC) (F)     (DEG/KT/KT) (MB)    (FT/S)
CHAMBERS ISLAND  1540   61      CALM  /  3 1010.5F
N MID LAKE BUOY  1550   46 44  220/  4/  4 1012.0R   0
NORTHPORT PIER   1540   53     340/  3/  5 1011.2R
KEWAUNEE LAKESHO 1554   52     120/  4/  5 1010.9S
SHEBOYGAN LAKESH 1600   48     160/  4/  4 1011.7R
PORT WASHINGTON  1540   49     100/  4/  4 1012.5F
ATWATER BUOY     1509   47      80/  2/  4 1011.8F
MILWAUKEE LAKESH 1600   51      80/  3/  3   N/A
S MID LAKE BUOY  1550   47 46  160/  4/  6 1012.2F   1/ 4
KENOSHA   LAKESH 1600   51     140/  3/  4 1011.5
$$

TC  - TEMPERATURE IN CELSIUS
VSB - VISIBILITY IN STATUTE MILES
WCI - WIND CHILL INDEX
HX  - HEAT INDEX





USA.gov is the U.S. government's official web portal to all federal, state and local government web resources and services.